Location: Brede
(50.9167°N, 0.6000°E)
Time: 22:59:26
(UTC+00:00)

A-11 Canister half - Pass Details

Date: 03 December 2020
Orbit: 1524 x 1684 km, 47.3° (Epoch: 24 January)

Event Time Altitude Azimuth Distance (km) Brightness Sun altitude
Exits shadow 05:25:23 - 231° (SW) 4,112 10.9 -20.4°
Reaches altitude 10° 05:25:56 10° 231° (SW) 3,944 10.8 -20.3°
Maximum altitude 05:35:45 57° 156° (SSE) 1,917 9.6 -18.8°
Drops below altitude 10° 05:45:25 10° 82° (E) 3,888 12.2 -17.3°
Sets 05:48:35 0° 78° (ENE) 4,856 12.8 -16.9°
